Location: Pine Mountain Observatory
(43.7910°N, 120.9377°W)
Time: 19:11:19
(UTC-07:00)

APEX - Visible Passes

Search period start: 04 May 2015 00:00
Search period end: 14 May 2015 00:00
Orbit: 336 x 1327 km, 69.9° (Epoch: 04 May)

Date Brightness Start Highest point End Pass type
(mag) Time Alt. Az. Time Alt. Az. Time Alt. Az.
04 May 5.4 00:59:04 43° WSW 01:01:48 60° WNW 01:09:53 10° NNE visible
04 May 7.0 02:41:54 10° W 02:47:44 20° NW 02:53:08 10° N visible
04 May 5.7 22:59:08 34° ESE 22:59:46 35° ESE 23:07:04 10° NE visible
05 May 5.4 00:40:40 42° WSW 00:43:40 64° WNW 00:51:46 10° NNE visible
05 May 7.0 02:23:27 10° W 02:29:28 21° NW 02:35:03 10° N visible
05 May 5.8 22:40:35 31° ESE 22:41:41 32° ESE 22:48:48 10° NE visible
06 May 5.3 00:22:07 40° SW 00:25:28 68° WNW 00:33:37 10° NNE visible
06 May 6.9 02:04:58 10° W 02:11:10 22° NW 02:16:55 10° N visible
06 May 5.9 22:21:52 27° ESE 22:23:33 30° ESE 22:30:29 10° NE visible
07 May 5.2 00:03:22 36° SW 00:07:15 73° WNW 00:15:24 10° NNE visible
07 May 6.9 01:46:28 10° W 01:52:51 23° NW 01:58:45 10° N visible
07 May 6.0 22:02:54 23° SE 22:05:23 28° E 22:12:06 10° NE visible
07 May 5.2 23:44:24 30° SW 23:49:00 77° WNW 23:57:10 10° NNE visible
08 May 6.9 01:27:56 10° W 01:34:29 24° NW 01:40:33 10° N visible
08 May 6.0 21:43:38 19° SE 21:47:11 25° E 21:53:40 10° NE visible
08 May 5.1 23:25:06 23° SSW 23:30:44 82° WNW 23:38:53 10° NNE visible
09 May 6.8 01:09:22 10° W 01:16:05 25° NW 01:22:18 10° N visible
09 May 6.1 21:23:56 13° SE 21:28:56 23° E 21:35:10 10° NE visible
09 May 5.1 23:05:22 16° SSW 23:12:25 87° WNW 23:20:33 10° NNE visible
10 May 6.8 00:50:47 10° W 00:57:39 27° NW 01:04:01 10° N visible
10 May 6.2 21:05:04 10° SE 21:10:40 22° E 21:16:36 10° NE visible
10 May 5.1 22:45:48 10° SSW 22:54:04 88° ESE 23:02:10 10° NNE visible
11 May 6.7 00:32:10 10° WSW 00:39:11 28° NW 00:45:41 10° N visible
11 May 6.3 20:47:07 10° SE 20:52:21 20° E 20:57:58 10° NE visible
11 May 5.1 22:27:25 10° SSW 22:35:41 83° ESE 22:43:45 10° NNE visible
12 May 6.7 00:13:31 10° WSW 00:20:41 30° NW 00:27:19 10° NNE visible
12 May 7.7 02:06:04 10° NNW 02:07:30 10° NNW 02:08:39 10° NNW visible
12 May 5.1 22:09:01 10° SSW 22:17:16 77° ESE 22:25:17 10° NNE visible
12 May 6.6 23:54:52 10° WSW 00:02:10 32° NW 00:08:55 10° NNE visible
13 May 7.7 01:46:50 10° NW 01:48:53 11° NNW 01:50:35 10° NNW visible
13 May 5.1 21:50:37 10° SSW 21:58:50 72° ESE 22:06:47 10° NNE visible
13 May 6.6 23:36:10 10° WSW 23:43:36 34° NW 23:50:27 10° NNE visible
